Tracking 32139 objects as of 16-Nov-2025
HD Live streaming from Space Station
objects crossing your sky now

STARLINK-35373

Track STARLINK-35373 now!
10-day predictions
STARLINK-35373 is classified as:


NORAD ID: 65792
Int'l Code: 2025-218B
Perigee: 555.3 km
Apogee: 558.1 km
Inclination: 97.6 °
Period: 95.6 minutes
Semi major axis: 6927 km
RCS: Unknown
Launch date: September 26, 2025
Source: United States (US)
Launch site: AIR FORCE EASTERN TEST RANGE (AFETR)
Your satellite tracking list
Your tracking list is empty




NASA's NSSDC Master Catalog

Two Line Element Set (TLE):
1 65792U 25218B   25319.33641213  .00009004  00000-0  62770-3 0  9998
2 65792  97.6027 180.2471 0001965  90.4625 269.6827 15.05634551  7767
Source of the keplerian elements: AFSPC